Weather History for Keahole Point, HI

Change the Weather History Date:

Friday, December 7, 2012

  Actual Average Record
Temperature  
Mean Temperature 78 °F -  
Max Temperature 84 °F 80 °F 89 °F (1988)
Min Temperature 73 °F 68 °F 62 °F (1986)
Cooling Degree Days 14    
Growing Degree Days 28 (Base 50)    
Moisture  
Dew Point 65 °F    
Average Humidity 65    
Maximum Humidity 76    
Minimum Humidity 54    
Precipitation  
Precipitation 0.00 in - - ()
Sea Level Pressure  
Sea Level Pressure 29.92 in    
Wind  
Wind Speed 6 mph (East)    
Max Wind Speed 15 mph    
Max Gust Speed 22 mph    
Visibility 10 miles    
Events      
Averages and records for this station are not official NWS values.
T = Trace of Precipitation, MM = Missing Value Source: NWS Daily Summary

Daily Weather History Graph

Daily Weather History Graph

Search for Another Location

Airport:

Trip Planner

Search our weather history database for the weather conditions in past years. The results will help you decide how hot, cold, wet, or windy it might be!

Date:

Astronomy

Dec. 07, 2012 Rise Set
Actual Time 6:46 AM HST 5:45 PM HST
Civil Twilight 6:22 AM HST 6:09 PM HST
Nautical Twilight 5:55 AM HST 6:36 PM HST
Astronomical Twilight 5:28 AM HST 7:03 PM HST
Moon 12:59 AM HST (12/7) 1:11 PM HST (12/7)
Length of Visible Light 11h 46m
Length of Day
10h 58m
Last Quarter, 36% of the Moon is Illuminated
Dec 7
Last Quarter
Dec 12
New
Dec 19
First Quarter
Dec 28
Full
Jan 4
Last Quarter

Hourly Weather History & Observations

Time (HST) Temp. Heat Index Dew Point Humidity Pressure Visibility Wind Dir Wind Speed Gust Speed Precip Events Conditions
12:53 AM 75.9 °F - 64.9 °F 69% 29.93 in 10.0 mi Calm Calm - N/A   Overcast
1:53 AM 73.9 °F - 64.9 °F 73% 29.93 in 10.0 mi Calm Calm - N/A   Scattered Clouds
2:53 AM 73.0 °F - 64.9 °F 76% 29.92 in 10.0 mi East 3.5 mph - N/A   Clear
3:53 AM 73.0 °F - 64.0 °F 73% 29.90 in 10.0 mi East 4.6 mph - N/A   Partly Cloudy
4:53 AM 73.0 °F - 63.0 °F 71% 29.91 in 10.0 mi ESE 4.6 mph - N/A   Mostly Cloudy
5:53 AM 73.9 °F - 63.0 °F 68% 29.94 in 10.0 mi East 3.5 mph - N/A   Scattered Clouds
6:53 AM 75.0 °F - 63.0 °F 66% 29.95 in 10.0 mi SE 5.8 mph - N/A   Overcast
7:53 AM 77.0 °F - 63.0 °F 62% 29.97 in 10.0 mi SE 4.6 mph - N/A   Overcast
8:53 AM 80.1 °F 81.9 °F 64.9 °F 60% 29.98 in 10.0 mi South 6.9 mph - N/A   Clear
9:53 AM 81.0 °F 82.7 °F 64.9 °F 58% 29.99 in 10.0 mi Variable 4.6 mph - N/A   Clear
10:53 AM 80.1 °F 82.3 °F 66.9 °F 64% 29.99 in 10.0 mi West 6.9 mph - N/A   Clear
11:53 AM 81.0 °F 83.8 °F 68.0 °F 65% 29.97 in 10.0 mi WNW 6.9 mph - N/A   Clear
12:53 PM 82.9 °F 85.8 °F 68.0 °F 60% 29.94 in 10.0 mi NW 12.7 mph - N/A   Clear
1:53 PM 84.0 °F 86.5 °F 66.9 °F 56% 29.91 in 10.0 mi NNW 15.0 mph - N/A   Clear
2:53 PM 82.9 °F 85.0 °F 66.0 °F 56% 29.89 in 10.0 mi NNW 13.8 mph - N/A   Clear
3:53 PM 82.0 °F 84.1 °F 66.0 °F 58% 29.86 in 10.0 mi NNW 15.0 mph - N/A   Clear
4:53 PM 81.0 °F 82.5 °F 64.0 °F 56% 29.86 in 10.0 mi NNW 12.7 mph - N/A   Clear
5:53 PM 79.0 °F - 64.9 °F 62% 29.86 in 10.0 mi NW 9.2 mph - N/A   Clear
6:25 PM 80.6 °F 81.8 °F 62.6 °F 54% 29.87 in 10.0 mi NNE 12.7 mph 21.9 mph N/A   Clear
6:53 PM 80.1 °F 81.5 °F 63.0 °F 56% 29.88 in 10.0 mi ESE 11.5 mph - N/A   Clear
7:53 PM 78.1 °F - 64.9 °F 64% 29.90 in 10.0 mi SE 12.7 mph - N/A   Clear
8:53 PM 77.0 °F - 66.9 °F 71% 29.91 in 10.0 mi SE 8.1 mph - N/A   Clear
9:53 PM 75.9 °F - 66.0 °F 71% 29.91 in 10.0 mi SE 8.1 mph - N/A   Clear
10:53 PM 75.9 °F - 66.0 °F 71% 29.91 in 10.0 mi SE 6.9 mph - N/A   Clear
11:53 PM 75.0 °F - 66.0 °F 73% 29.91 in 10.0 mi East 5.8 mph - N/A   Clear